Home > Time Zones > World Clock > Weather > Spain > Palma > Past weeks

Flag for Spain Weather past 2 weeks in Palma, Majorca, Spain

Now
70 °F

Clear.


Feels Like: 70 °F
Forecast: 70 / 88 °F
Wind: 1 mph from North

Location: Palma De Mallorca / Son San Juan

Current Time: Aug 28, 2015 at 2:15:43 AM

Latest Report: Aug 28, 2015 at 1:30 AM


Visibility: 10 mi

Pressure: 30.04 "Hg

Humidity: 94%

Dew point: 68 °F

Location of PalmaLocation

Historic Weather in Palma — Graph

°F

Palma temperature yesterday

Maximum temperature yesterday: 88 °F (at 3:30 PM)
Minimum temperature yesterday: 66 °F (at 4:30 AM)
Average temperature yesterday: 77 °F

Past Weeks' High & Low Weather Summary

 TemperatureHumidityPressure
High91 °F (Aug 22, 1:00 PM)100% (Aug 15, 4:47 AM)30.18 "Hg (Aug 15, 4:47 AM)
Low61 °F (Aug 16, 5:30 AM)34% (Aug 22, 2:00 PM)29.77 "Hg (Aug 23, 6:00 AM)
Average77 °F73%29.98 "Hg
* Reported Aug 13 1:00 AM — Aug 28 1:00 AM, Palma, Weather by CustomWeather, © 2015

Note: Actual official high and low records may vary slightly from our data, if they occured in-between our weather recording intervals... More about our weather records

Advertising

Palma weather history for previous 24 hours

 ConditionsComfort  
Time TempWeatherWind HumidityBarometerVisibility
1:00 AM
Fri, Aug 28
72 °FClear.1 mph88%30.04 "Hg10 mi
12:30 AM72 °FClear.2 mph88%30.01 "Hg10 mi
12:00 AM72 °FClear.2 mph88%30.01 "Hg10 mi
11:30 PM
Thu, Aug 27
73 °FClear.No wind83%30.01 "Hg10 mi
11:00 PM73 °FClear.1 mph89%30.01 "Hg10 mi
10:30 PM75 °FClear.No wind83%30.01 "Hg10 mi
10:00 PM75 °FClear.1 mph89%30.01 "Hg10 mi
9:30 PM77 °FClear.2 mph83%30.01 "Hg10 mi
9:00 PM77 °FSunny.2 mph83%29.98 "Hg10 mi
8:30 PM79 °FSunny.6 mph79%29.98 "Hg10 mi
8:00 PM81 °FSunny.8 mph74%29.98 "Hg10 mi
7:30 PM81 °FSunny.9 mph74%29.98 "Hg10 mi
7:00 PM82 °FPassing clouds.12 mph70%29.98 "HgN/A
6:30 PM84 °FSunny.12 mph66%29.98 "Hg10 mi
6:00 PM84 °FSunny.14 mph62%29.98 "Hg10 mi
5:30 PM84 °FSunny.15 mph66%29.98 "Hg10 mi
5:00 PM86 °FSunny.15 mph59%29.98 "Hg10 mi
4:30 PM86 °FPassing clouds.16 mph52%29.98 "HgN/A
4:00 PM86 °FPassing clouds.16 mph52%29.98 "HgN/A
3:30 PM88 °FPassing clouds.15 mph49%30.01 "HgN/A
3:00 PM86 °FSunny.14 mph55%30.01 "Hg10 mi
2:30 PM86 °FSunny.12 mph55%30.01 "Hg10 mi
2:00 PM86 °FPassing clouds.13 mph55%30.01 "HgN/A
1:30 PM86 °FPassing clouds.13 mph59%30.04 "HgN/A
1:00 PM84 °FPassing clouds.12 mph62%30.04 "HgN/A
12:30 PM86 °FPassing clouds.9 mph59%30.04 "HgN/A
12:00 PM86 °FPassing clouds.7 mph59%30.04 "HgN/A
11:30 AM84 °FPassing clouds.5 mph51%30.04 "HgN/A
11:00 AM84 °FSunny.No wind51%30.04 "Hg10 mi
10:30 AM84 °FSunny.1 mph51%30.04 "Hg10 mi
10:00 AM82 °FSunny.No wind51%30.04 "Hg10 mi
9:30 AM79 °FSunny.1 mph61%30.04 "Hg10 mi
9:00 AM75 °FSunny.No wind69%30.01 "Hg10 mi
8:30 AM72 °FSunny.5 mph73%30.01 "Hg10 mi
8:00 AM68 °FPassing clouds.8 mph83%30.01 "HgN/A
7:30 AM66 °FPassing clouds.3 mph88%30.01 "HgN/A
7:00 AM66 °FClear.3 mph88%30.01 "Hg10 mi
6:30 AM68 °FClear.2 mph83%30.01 "Hg10 mi
6:00 AM68 °FClear.3 mph83%30.01 "Hg10 mi
5:30 AM68 °FClear.1 mph83%30.01 "Hg10 mi
4:30 AM66 °FClear.2 mph88%30.01 "Hg10 mi
4:00 AM68 °FClear.No wind83%30.01 "Hg10 mi
3:30 AM68 °FClear.No wind83%30.01 "Hg10 mi
3:00 AM70 °FClear.2 mph78%30.04 "Hg10 mi
2:30 AM70 °FClear.1 mph83%30.04 "Hg10 mi
2:00 AM68 °FClear.2 mph83%30.04 "Hg10 mi
Weather by CustomWeather, © 2015

See weather overviewHow to use our weather pages